�N����,����,�~����,�C��,���x,�C��,����,���ϕ���,�ő�u�ԕ���,�ő厞����,���˗�,�I�_���x,�n�����x,�ő啗���N��,DTYPE
"16/07/18","00:10",0.0,23.1,91.3,1002.9,299.1,0.7,1.6,326.9,0.00,21.6,25.9,"00:02:40",1
"16/07/18","00:20",0.0,23.0,91.5,1002.4,294.9,0.8,1.0,281.9,0.00,21.6,26.0,"00:16:08",1
"16/07/18","00:30",0.0,22.9,92.0,1002.9,311.2,1.3,1.9,337.3,0.00,21.6,25.8,"00:27:20",1
"16/07/18","00:40",0.0,22.7,92.2,1002.9,313.5,1.3,2.2,337.0,0.00,21.4,25.7,"00:34:56",1
"16/07/18","00:50",0.0,22.7,92.7,1002.9,293.8,1.1,1.8,338.9,0.00,21.5,25.8,"00:48:32",1
"16/07/18","01:00",0.0,22.9,92.4,1002.9,297.4,0.7,1.8,334.4,0.00,21.6,25.7,"00:51:36",1
"16/07/18","01:10",0.0,22.9,92.1,1002.9,290.2,0.3,0.8,330.7,0.00,21.6,25.7,"01:00:32",1
"16/07/18","01:20",0.0,22.9,92.2,1002.9,307.8,0.7,1.6,326.4,0.00,21.6,25.7,"01:10:02",1
"16/07/18","01:30",0.0,22.9,92.3,1003.1,307.6,1.1,1.9,325.0,0.00,21.6,25.7,"01:22:08",1
"16/07/18","01:40",0.0,22.8,92.5,1002.6,306.1,1.1,1.6,324.6,0.00,21.6,25.6,"01:32:00",1
"16/07/18","01:50",0.0,22.7,92.6,1003.1,308.1,1.2,1.8,316.6,0.00,21.5,25.4,"01:46:56",1
"16/07/18","02:00",0.0,22.7,92.9,1002.9,326.9,1.3,1.7,326.1,0.00,21.5,25.4,"01:53:36",1
"16/07/18","02:10",0.0,22.6,92.7,1002.6,312.3,1.2,1.7,346.3,0.00,21.4,25.3,"02:00:40",1
"16/07/18","02:20",0.0,22.4,92.8,1002.6,290.3,1.1,1.6,314.0,0.00,21.2,25.4,"02:14:24",1
"16/07/18","02:30",0.0,22.2,93.2,1002.6,293.0,0.8,1.6,324.0,0.00,21.1,25.3,"02:29:52",1
"16/07/18","02:40",0.0,22.3,93.7,1003.1,307.4,1.0,1.7,320.9,0.00,21.3,25.3,"02:38:56",1
"16/07/18","02:50",0.0,22.5,93.7,1003.1,328.7,1.0,1.7,322.2,0.00,21.5,25.1,"02:49:12",1
"16/07/18","03:00",0.0,22.5,93.5,1002.6,310.7,1.1,1.8,314.8,0.00,21.4,25.3,"02:54:40",1
"16/07/18","03:10",0.0,22.4,93.6,1002.9,284.5,0.8,1.1,321.4,0.00,21.4,25.3,"03:01:12",1
"16/07/18","03:20",0.0,22.3,93.6,1003.1,303.9,1.2,1.4,317.0,0.00,21.3,25.2,"03:16:56",1
"16/07/18","03:30",0.0,22.2,93.8,1002.9,301.9,1.1,1.6,322.4,0.00,21.2,25.1,"03:28:48",1
"16/07/18","03:40",0.0,22.2,94.1,1003.1,307.7,1.2,1.9,312.3,0.00,21.2,25.1,"03:35:12",1
"16/07/18","03:50",0.0,22.4,94.1,1003.1,318.1,1.5,2.4,327.2,0.00,21.4,25.1,"03:44:48",1
"16/07/18","04:00",0.0,22.4,93.9,1003.1,310.4,1.1,1.8,325.5,0.00,21.4,24.9,"03:59:52",1
"16/07/18","04:10",0.0,22.3,93.7,1003.1,314.5,1.3,1.9,320.6,0.00,21.3,24.8,"04:06:24",1
"16/07/18","04:20",0.0,22.3,93.5,1003.1,323.0,1.5,2.0,339.3,0.00,21.2,24.9,"04:13:52",1
"16/07/18","04:30",0.0,22.2,93.4,1003.6,324.0,1.5,1.9,311.0,0.00,21.1,24.9,"04:24:48",1
"16/07/18","04:40",0.0,22.2,93.2,1003.6,326.9,1.5,2.7,337.3,0.00,21.1,24.9,"04:39:36",1
"16/07/18","04:50",0.0,22.2,93.2,1003.6,327.6,1.6,2.5,337.6,0.00,21.1,24.8,"04:45:12",1
"16/07/18","05:00",0.0,22.3,93.0,1003.4,324.7,1.3,2.5,334.6,0.00,21.2,24.7,"04:58:08",1
"16/07/18","05:10",0.0,22.3,92.9,1003.4,323.6,1.6,2.2,340.9,0.00,21.1,24.9,"05:00:32",1
"16/07/18","05:20",0.0,22.2,93.0,1003.6,313.2,1.2,2.0,334.8,0.00,21.1,24.7,"05:17:44",1
"16/07/18","05:30",0.0,22.3,93.0,1003.6,323.5,1.5,2.1,331.3,0.00,21.2,24.6,"05:21:12",1
"16/07/18","05:40",0.0,22.4,92.8,1003.4,329.6,1.5,2.2,326.4,0.00,21.2,24.6,"05:31:52",1
"16/07/18","05:50",0.0,22.7,92.6,1003.4,327.6,1.3,2.6,334.5,0.00,21.5,24.6,"05:41:52",1
"16/07/18","06:00",0.0,23.0,91.9,1003.4,332.1,1.2,2.2,341.8,0.01,21.7,24.7,"05:58:32",1
"16/07/18","06:10",0.0,23.2,91.3,1003.6,333.1,1.3,2.2,337.7,0.02,21.7,24.8,"06:00:32",1
"16/07/18","06:20",0.0,23.8,89.9,1003.8,343.8,1.1,2.5,343.5,0.03,22.1,24.7,"06:12:24",1
"16/07/18","06:30",0.0,24.7,87.2,1004.1,356.9,1.1,2.0,352.7,0.06,22.5,24.9,"06:20:16",1
"16/07/18","06:40",0.0,25.2,83.5,1004.1,2.6,0.8,2.4,353.0,0.08,22.2,24.8,"06:31:20",1
"16/07/18","06:50",0.0,25.7,81.6,1004.1,9.5,0.8,1.8,9.2,0.11,22.4,24.9,"06:49:12",1
"16/07/18","07:00",0.0,26.0,80.6,1004.1,13.4,0.6,1.7,23.8,0.09,22.4,24.8,"06:53:04",1
"16/07/18","07:10",0.0,25.5,81.4,1003.8,351.4,0.6,1.6,340.5,0.08,22.1,24.9,"07:05:20",1
"16/07/18","07:20",0.0,25.7,83.3,1003.6,356.1,0.8,1.6,344.7,0.08,22.7,25.0,"07:13:28",1
"16/07/18","07:30",0.0,26.3,81.0,1003.4,344.0,0.6,1.3,357.5,0.11,22.8,25.1,"07:20:56",1
"16/07/18","07:40",0.0,26.3,78.8,1003.4,356.0,0.8,2.0,356.4,0.11,22.4,25.2,"07:35:44",1
"16/07/18","07:50",0.0,26.2,79.0,1003.1,279.3,0.3,1.6,216.8,0.11,22.3,25.3,"07:48:32",1
"16/07/18","08:00",0.0,26.8,77.0,1003.4,319.4,0.2,1.2,330.7,0.12,22.5,25.3,"07:55:12",1
"16/07/18","08:10",0.0,27.0,75.5,1003.4,337.9,0.3,1.6,355.9,0.12,22.3,25.3,"08:02:08",1
"16/07/18","08:20",0.0,27.3,71.6,1003.1,354.8,0.6,2.1,357.7,0.15,21.8,25.5,"08:18:16",1
"16/07/18","08:30",0.0,27.0,75.5,1003.1,297.0,0.3,1.8,28.0,0.13,22.3,25.6,"08:20:48",1
"16/07/18","08:40",0.0,27.7,75.4,1002.2,270.1,0.3,1.7,215.6,0.22,23.0,25.5,"08:39:04",1
"16/07/18","08:50",0.0,28.2,71.7,1002.9,225.7,1.1,3.6,221.3,0.39,22.6,25.7,"08:46:40",1
"16/07/18","09:00",0.0,28.7,69.1,1003.1,29.3,0.5,2.0,355.8,0.29,22.5,25.9,"08:50:02",1
"16/07/18","09:10",0.0,28.3,67.6,1003.4,61.6,1.1,3.1,42.5,0.26,21.8,26.0,"09:05:28",1
"16/07/18","09:20",0.0,28.1,69.1,1002.9,25.5,0.8,2.5,352.0,0.19,21.9,26.0,"09:19:28",1
"16/07/18","09:30",0.0,28.0,71.0,1002.9,309.6,0.6,2.2,356.7,0.18,22.3,26.3,"09:21:36",1
"16/07/18","09:40",0.0,28.6,69.4,1002.6,4.9,0.7,1.7,13.7,0.23,22.5,26.5,"09:32:00",1
"16/07/18","09:50",0.0,28.4,70.1,1003.1,220.8,0.7,2.8,215.9,0.22,22.5,26.6,"09:41:20",1
"16/07/18","10:00",0.0,28.8,66.1,1003.4,214.2,0.5,2.7,230.9,0.30,21.9,26.8,"09:56:32",1
"16/07/18","10:10",0.0,29.9,63.0,1003.6,239.6,0.6,2.4,7.5,0.40,22.1,26.8,"10:06:16",1
"16/07/18","10:20",0.0,29.9,65.6,1003.6,41.2,1.2,2.9,40.4,0.35,22.8,26.8,"10:13:36",1
"16/07/18","10:30",0.0,30.2,59.9,1003.6,209.8,1.5,3.3,212.8,0.54,21.6,27.1,"10:21:12",1
"16/07/18","10:40",0.0,30.3,61.1,1003.8,224.6,0.8,2.9,207.9,0.39,22.0,27.3,"10:38:56",1
"16/07/18","10:50",0.0,29.5,61.3,1003.4,193.4,1.0,4.4,221.4,0.25,21.3,27.3,"10:42:56",1
"16/07/18","11:00",0.0,30.2,59.4,1003.4,223.8,1.5,3.2,231.6,0.46,21.5,27.4,"10:59:44",1
"16/07/18","11:10",0.0,31.1,57.0,1003.4,205.1,1.0,2.1,205.4,0.62,21.6,27.8,"11:08:00",1
"16/07/18","11:20",0.0,30.6,62.3,1003.8,192.7,0.6,2.4,220.9,0.38,22.6,27.9,"11:10:40",1
"16/07/18","11:30",0.0,31.1,56.4,1004.1,224.4,1.2,3.2,220.2,0.59,21.4,28.0,"11:23:04",1
"16/07/18","11:40",0.0,30.0,58.5,1003.8,219.0,1.3,3.9,226.7,0.36,21.0,28.2,"11:30:16",1
"16/07/18","11:50",0.0,30.8,59.3,1003.4,245.9,0.8,4.1,228.5,0.46,22.0,28.4,"11:48:08",1
"16/07/18","12:00",0.0,31.1,55.1,1003.4,29.2,0.7,2.4,3.8,0.39,21.1,28.3,"11:52:56",1
"16/07/18","12:10",0.0,32.0,54.1,1003.6,200.4,0.8,3.2,229.3,0.62,21.6,28.7,"12:03:52",1
"16/07/18","12:20",0.0,31.5,53.8,1003.8,19.3,0.8,2.7,359.6,0.44,21.0,28.9,"12:13:36",1
"16/07/18","12:30",0.0,32.2,55.9,1003.4,163.2,0.8,2.6,226.8,0.54,22.3,29.2,"12:27:36",1
"16/07/18","12:40",0.0,31.9,53.3,1003.4,206.4,0.7,2.5,219.2,0.54,21.3,29.3,"12:35:52",1
"16/07/18","12:50",0.0,33.0,55.2,1003.8,155.0,0.8,2.5,203.7,0.67,22.9,29.3,"12:40:16",1
"16/07/18","13:00",0.2,32.5,52.0,1003.6,233.2,0.8,3.3,197.8,0.53,21.4,29.5,"12:55:52",1
"16/07/18","13:10",0.0,31.9,51.8,1003.8,229.9,1.5,3.9,218.1,0.55,20.8,29.5,"13:06:48",1
"16/07/18","13:20",0.0,33.6,54.1,1003.6,202.2,0.5,1.9,191.5,0.64,23.1,29.6,"13:12:40",1
"16/07/18","13:30",0.0,32.7,50.9,1003.6,224.1,1.3,5.4,357.1,0.51,21.2,29.7,"13:29:28",1
"16/07/18","13:40",0.0,32.3,55.2,1003.4,348.2,1.2,2.8,10.4,0.33,22.2,29.6,"13:32:24",1
"16/07/18","13:50",0.0,32.5,52.1,1003.1,224.5,1.3,2.9,229.8,0.51,21.4,29.5,"13:46:24",1
"16/07/18","14:00",0.0,32.7,53.4,1003.1,231.2,1.0,2.9,223.6,0.44,22.0,29.7,"13:58:56",1
"16/07/18","14:10",0.0,32.5,50.5,1003.1,225.5,1.6,4.4,217.2,0.49,20.9,29.7,"14:02:40",1
"16/07/18","14:20",0.0,33.5,52.7,1003.1,223.3,0.7,3.6,219.3,0.50,22.6,29.8,"14:11:04",1
"16/07/18","14:30",0.0,33.6,51.4,1003.6,216.5,0.7,2.6,221.8,0.52,22.2,29.8,"14:23:04",1
"16/07/18","14:40",0.0,34.0,46.8,1003.8,332.5,1.1,4.7,2.0,0.53,21.1,30.0,"14:39:36",1
"16/07/18","14:50",0.0,33.7,48.8,1003.4,311.6,1.1,3.3,341.8,0.52,21.5,30.1,"14:47:04",1
"16/07/18","15:00",0.0,33.0,49.2,1003.8,343.2,1.2,2.9,42.6,0.40,21.0,30.2,"14:59:28",1
"16/07/18","15:10",0.0,33.5,49.6,1002.9,13.5,1.3,4.1,1.7,0.47,21.6,30.4,"15:04:08",1
"16/07/18","15:20",0.0,32.7,51.5,1003.1,357.0,1.3,3.6,14.7,0.36,21.4,30.3,"15:17:04",1
"16/07/18","15:30",0.0,32.3,51.8,1002.6,13.7,1.0,3.1,359.0,0.22,21.2,30.2,"15:28:48",1
"16/07/18","15:40",0.0,31.7,52.7,1002.6,1.2,0.8,3.2,7.7,0.14,20.9,30.1,"15:32:48",1
"16/07/18","15:50",0.0,31.5,56.7,1002.2,351.2,0.7,2.6,355.9,0.14,21.9,30.0,"15:48:16",1
"16/07/18","16:00",0.0,32.6,55.5,1002.4,4.3,0.6,2.0,347.9,0.26,22.6,30.1,"15:58:48",1
"16/07/18","16:10",0.0,32.7,54.0,1002.4,331.5,1.3,4.3,352.9,0.33,22.2,30.1,"16:08:48",1
"16/07/18","16:20",0.0,32.7,53.3,1002.2,355.5,1.3,3.3,10.1,0.27,22.0,29.9,"16:18:16",1
"16/07/18","16:30",0.0,32.3,54.7,1001.9,354.8,1.2,3.4,49.2,0.25,22.1,29.9,"16:20:24",1
"16/07/18","16:40",0.0,31.6,55.7,1001.7,3.8,1.2,3.3,350.3,0.11,21.7,29.9,"16:32:00",1
"16/07/18","16:50",0.0,30.7,58.9,1001.2,350.6,1.3,3.6,359.0,0.12,21.8,29.8,"16:46:16",1
"16/07/18","17:00",0.0,30.8,59.5,1001.2,349.6,1.2,2.6,353.5,0.14,22.0,29.5,"16:51:20",1
"16/07/18","17:10",0.0,30.7,60.0,1001.0,6.9,1.6,3.3,14.9,0.07,22.1,29.4,"17:02:08",1
"16/07/18","17:20",0.0,30.3,61.3,1001.0,12.2,1.8,3.9,2.5,0.03,22.1,29.3,"17:16:48",1
"16/07/18","17:30",0.0,30.1,60.8,1001.0,12.3,2.0,3.3,30.5,0.03,21.7,29.1,"17:22:48",1
"16/07/18","17:40",0.0,29.7,61.6,1000.8,2.5,2.1,4.9,331.0,0.02,21.6,29.1,"17:36:08",1
"16/07/18","17:50",0.0,29.2,63.1,1001.0,9.4,2.8,6.3,1.8,0.02,21.5,28.8,"17:44:32",1
"16/07/18","18:00",0.0,28.9,64.4,1000.8,5.4,1.8,4.5,4.9,0.01,21.5,28.7,"17:54:16",1
"16/07/18","18:10",0.0,28.7,64.4,1000.5,1.4,1.6,4.1,349.9,0.01,21.4,28.6,"18:03:44",1
"16/07/18","18:20",0.0,28.5,64.8,1001.5,11.3,1.7,2.9,351.9,0.00,21.3,28.4,"18:10:08",1
"16/07/18","18:30",0.0,28.3,65.9,1001.7,354.0,1.6,3.2,356.2,0.00,21.4,28.4,"18:29:12",1
"16/07/18","18:40",0.0,27.8,66.9,1001.5,353.8,2.0,4.2,328.2,0.00,21.1,28.4,"18:34:40",1
"16/07/18","18:50",0.0,27.4,67.5,1001.7,356.8,2.3,4.7,359.5,0.00,20.9,28.2,"18:42:16",1
"16/07/18","19:00",0.0,27.2,68.2,1001.9,0.0,2.3,4.2,348.8,0.00,20.9,28.1,"18:52:24",1
"16/07/18","19:10",0.0,26.8,69.0,1002.4,347.7,2.0,4.8,343.5,0.00,20.7,27.8,"19:06:16",1
"16/07/18","19:20",0.0,26.6,69.2,1002.4,358.6,2.2,4.0,19.4,0.00,20.5,27.7,"19:14:48",1
"16/07/18","19:30",0.0,26.4,70.1,1002.6,354.4,2.0,4.5,348.9,0.00,20.6,27.7,"19:28:24",1
"16/07/18","19:40",0.0,26.2,70.8,1002.9,343.6,1.7,4.2,0.7,0.00,20.5,27.5,"19:32:48",1
"16/07/18","19:50",0.0,25.9,71.2,1003.1,329.3,1.2,2.2,357.7,0.00,20.3,27.3,"19:44:56",1
"16/07/18","20:00",0.0,25.8,72.0,1002.9,327.1,1.2,3.3,327.6,0.00,20.4,27.2,"19:58:24",1
"16/07/18","20:10",0.0,25.6,72.6,1003.4,324.3,1.3,3.5,346.3,0.00,20.4,27.2,"20:06:56",1
"16/07/18","20:20",0.0,25.5,72.8,1003.4,349.4,2.0,3.6,354.5,0.00,20.3,27.3,"20:16:32",1
"16/07/18","20:30",0.0,25.3,73.4,1003.8,348.1,2.1,3.9,355.9,0.00,20.2,27.1,"20:20:40",1
"16/07/18","20:40",0.0,25.3,73.4,1003.8,356.1,2.3,4.8,354.0,0.00,20.2,27.1,"20:38:24",1
"16/07/18","20:50",0.0,25.1,73.8,1003.8,349.7,1.8,3.5,349.8,0.00,20.1,27.0,"20:44:08",1
"16/07/18","21:00",0.0,24.9,74.1,1004.3,346.2,1.8,4.0,350.6,0.00,20.0,26.8,"20:51:20",1
"16/07/18","21:10",0.0,24.8,74.9,1004.1,346.6,1.5,2.6,343.8,0.00,20.1,26.8,"21:02:24",1
"16/07/18","21:20",0.0,24.5,75.9,1004.3,344.1,1.2,2.5,350.9,0.00,20.0,26.7,"21:15:52",1
"16/07/18","21:30",0.0,24.3,76.6,1004.5,344.2,1.3,2.1,339.1,0.00,20.0,26.6,"21:22:16",1
"16/07/18","21:40",0.0,24.0,78.5,1004.3,316.2,0.8,2.1,355.3,0.00,20.1,26.4,"21:30:48",1
"16/07/18","21:50",0.0,23.6,79.5,1004.3,319.1,1.0,1.8,338.8,0.00,19.9,26.5,"21:41:20",1
"16/07/18","22:00",0.0,23.5,79.6,1004.3,325.7,1.1,2.2,346.0,0.00,19.8,26.4,"21:59:12",1
"16/07/18","22:10",0.0,23.6,79.5,1004.5,325.2,1.1,2.0,340.0,0.00,19.9,26.4,"22:08:16",1
"16/07/18","22:20",0.0,23.7,78.7,1004.5,341.3,1.2,2.4,4.3,0.00,19.8,26.2,"22:10:32",1
"16/07/18","22:30",0.0,23.7,78.7,1004.3,330.6,1.1,2.4,353.8,0.00,19.8,26.1,"22:21:36",1
"16/07/18","22:40",0.0,23.5,78.7,1004.5,326.6,1.1,2.1,343.3,0.00,19.6,26.1,"22:33:44",1
"16/07/18","22:50",0.0,23.5,79.0,1004.3,340.4,1.2,2.0,341.4,0.00,19.7,26.2,"22:42:32",1
"16/07/18","23:00",0.0,23.4,79.5,1004.3,325.8,1.0,2.0,341.2,0.00,19.7,25.9,"22:50:56",1
"16/07/18","23:10",0.0,23.3,79.6,1004.3,323.5,1.1,1.8,337.0,0.00,19.6,26.1,"23:07:52",1
"16/07/18","23:20",0.0,23.2,79.7,1004.5,331.7,1.2,1.9,329.0,0.00,19.5,25.8,"23:12:56",1
"16/07/18","23:30",0.0,23.1,80.0,1004.3,340.6,1.2,2.0,347.9,0.00,19.5,25.7,"23:22:32",1
"16/07/18","23:40",0.0,23.0,80.0,1004.3,338.6,1.2,1.7,328.3,0.00,19.4,25.7,"23:30:32",1
"16/07/18","23:50",0.0,22.9,80.5,1003.8,329.3,1.1,1.9,331.9,0.00,19.4,25.7,"23:45:20",1
"16/07/18","24:00",0.0,22.8,81.5,1004.1,316.3,1.1,1.9,322.0,0.00,19.5,25.7,"23:56:24",1
